Location: Cardiff
(53.7833°N, 113.6000°W)
Time: 21:37:23
(UTC+00:00)

Oscar 19 - Pass Details

Date: 07 December 2023
Orbit: 771 x 789 km, 98.9° (Epoch: 04 March)

Event Time Altitude Azimuth Distance (km) Brightness Sun altitude
Rises 14:13:06 0° 9° (N) 3,274 13.7 -11.5°
Reaches altitude 10° 14:15:52 10° 355° (N) 2,345 12.8 -11.1°
Maximum altitude 14:19:43 22° 307° (NW) 1,665 11.8 -10.6°
Drops below altitude 10° 14:23:36 10° 258° (WSW) 2,344 12.6 -10.0°
Sets 14:26:22 0° 243° (WSW) 3,271 13.5 -9.7°
